User: anonymous   Login
Location: Vancouver
(49.2500°N, 123.1330°W)
Time: 17:15:30
(UTC-07:00)
Language:

SO-67 - Orbit

View from above orbital plane
View from above orbital plane
View from above satellite
View from above satellite

Ground track
Ground track

The orbit data is extracted from the following two-line orbital elements,

1 35870U 09049F   15240.43394887  .00010128  00000-0  23033-3 0  9999
2 35870 097.1356 255.2669 0001475 053.3669 078.5450 15.43173637331253
Epoch (UTC): 28 August 2015 10:24:53
Eccentricity: 0.0001475
inclination: 97.1356°
perigee height: 436 km
apogee height: 438 km
right ascension of ascending node: 255.2669°
argument of perigee: 53.3669°
revolutions per day: 15.43173637
mean anomaly at epoch: 78.5450°
orbit number at epoch: 33125

The dashed part of the orbit path shows where the satellite is in the earth's shadow,  

DLR